When you browse on this site, cookies collect data to enhance your experience and personalize the content and advertising you see.
Visit our Privacy Policy to learn more. By continuing to use the site, you agree to this use of cookies and data.
  • en France
  • Liste des pays
  • À 7 jours
  • Température de l'eau
  • Carte satellitaire
  • Carte météo
  • Widgets météo
  • user-avatar
    Se connecter

    Météo par heure à Novokuktovo

    Ce jour, 18 Février, Lundi

    Heure Température Précipitation Vent Pression Humidité
    00:00 -8°C° 0.2 mm 6 m/s 727 mmHg 91%
    01:00 -7°C° 0.2 mm 5 m/s 726 mmHg 92%
    02:00 -7°C° 0.3 mm 5 m/s 726 mmHg 92%
    03:00 -7°C° 0.3 mm 5 m/s 725 mmHg 93%
    04:00 -7°C° 0 mm 4 m/s 725 mmHg 93%
    05:00 -7°C° 0.3 mm 4 m/s 725 mmHg 94%
    06:00 -6°C° 0.3 mm 3 m/s 725 mmHg 94%
    07:00 -6°C° 0.3 mm 3 m/s 724 mmHg 94%
    08:00 -5°C° 0.2 mm 2 m/s 725 mmHg 94%
    09:00 -5°C° 0.2 mm 2 m/s 725 mmHg 95%
    10:00 -4°C° 0.2 mm 2 m/s 725 mmHg 95%
    11:00 -2°C° 0.1 mm 1 m/s 725 mmHg 93%
    12:00 -1°C° 0.1 mm 1 m/s 725 mmHg 92%
    13:00 -1°C° 0.1 mm 1 m/s 726 mmHg 91%
    14:00 -3°C° 0.2 mm 2 m/s 726 mmHg 92%
    15:00 -3°C° 0.2 mm 2 m/s 726 mmHg 93%
    16:00 -4°C° 0.2 mm 3 m/s 727 mmHg 93%
    17:00 -4°C° 0.2 mm 3 m/s 727 mmHg 94%
    18:00 -5°C° 0.2 mm 4 m/s 728 mmHg 94%
    19:00 -5°C° 0.2 mm 4 m/s 729 mmHg 95%
    20:00 -6°C° 0.2 mm 5 m/s 729 mmHg 94%
    21:00 -6°C° 0.2 mm 6 m/s 730 mmHg 94%
    22:00 -7°C° 0.2 mm 7 m/s 731 mmHg 94%
    23:00 -8°C° 0.2 mm 7 m/s 731 mmHg 91%

    Demain, 19 Février, Mardi

    Heure Température Précipitation Vent Pression Humidité
    00:00 -11°C° 0.2 mm 8 m/s 732 mmHg 89%
    01:00 -12°C° 0.2 mm 9 m/s 733 mmHg 86%
    02:00 -14°C° 0.1 mm 9 m/s 734 mmHg 86%
    03:00 -15°C° 0.1 mm 9 m/s 735 mmHg 87%
    04:00 -16°C° 0.1 mm 9 m/s 736 mmHg 87%
    05:00 -17°C° 0.1 mm 8 m/s 737 mmHg 86%
    06:00 -18°C° 0.1 mm 8 m/s 738 mmHg 86%
    07:00 -19°C° 0.1 mm 8 m/s 739 mmHg 86%
    08:00 -21°C° 0 mm 8 m/s 739 mmHg 86%
    09:00 -22°C° 0 mm 8 m/s 740 mmHg 86%
    10:00 -21°C° 0 mm 7 m/s 741 mmHg 86%
    11:00 -21°C° 0 mm 7 m/s 742 mmHg 85%
    12:00 -21°C° 0 mm 7 m/s 742 mmHg 84%
    13:00 -20°C° 0 mm 7 m/s 743 mmHg 84%
    14:00 -20°C° 0 mm 6 m/s 743 mmHg 83%
    15:00 -20°C° 0 mm 6 m/s 744 mmHg 83%
    16:00 -19°C° 0 mm 5 m/s 744 mmHg 83%
    17:00 -19°C° 0 mm 4 m/s 744 mmHg 85%
    18:00 -20°C° 0 mm 4 m/s 745 mmHg 88%
    19:00 -21°C° 0 mm 3 m/s 745 mmHg 90%
    20:00 -22°C° 0 mm 3 m/s 746 mmHg 90%
    21:00 -22°C° 0 mm 3 m/s 746 mmHg 91%
    22:00 -20°C° 0 mm 2 m/s 746 mmHg 91%
    23:00 -20°C° 0 mm 2 m/s 746 mmHg 90%

    Après-demain, 20 Février, Mercredi

    Heure Température Précipitation Vent Pression Humidité
    00:00 -19°C° 0 mm 2 m/s 746 mmHg 90%
    01:00 -19°C° 0 mm 2 m/s 746 mmHg 89%
    02:00 -19°C° 0 mm 2 m/s 746 mmHg 88%
    03:00 -19°C° 0 mm 2 m/s 746 mmHg 88%
    04:00 -19°C° 0 mm 2 m/s 746 mmHg 87%
    05:00 -19°C° 0 mm 2 m/s 746 mmHg 88%
    06:00 -19°C° 0 mm 3 m/s 746 mmHg 89%
    07:00 -19°C° 0 mm 3 m/s 746 mmHg 90%
    08:00 -18°C° 0 mm 3 m/s 746 mmHg 91%
    09:00 -18°C° 0 mm 4 m/s 746 mmHg 92%
    10:00 -17°C° 0 mm 4 m/s 746 mmHg 93%
    11:00 -16°C° 0 mm 4 m/s 746 mmHg 93%
    12:00 -15°C° 0 mm 4 m/s 746 mmHg 93%
    13:00 -13°C° 0 mm 5 m/s 746 mmHg 93%
    14:00 -13°C° 0 mm 5 m/s 745 mmHg 92%
    15:00 -12°C° 0 mm 5 m/s 745 mmHg 92%
    16:00 -11°C° 0 mm 6 m/s 745 mmHg 92%
    17:00 -11°C° 0 mm 6 m/s 745 mmHg 91%
    18:00 -11°C° 0 mm 6 m/s 744 mmHg 90%
    19:00 -11°C° 0 mm 6 m/s 744 mmHg 90%
    20:00 -11°C° 0 mm 6 m/s 744 mmHg 90%
    21:00 -11°C° 0 mm 6 m/s 743 mmHg 90%
    22:00 -12°C° 0 mm 6 m/s 743 mmHg 90%
    23:00 -11°C° 0 mm 6 m/s 743 mmHg 90%

    21 Février, Jeudi

    Heure Température Précipitation Vent Pression Humidité
    00:00 -11°C° 0 mm 6 m/s 742 mmHg 90%
    01:00 -10°C° 0 mm 6 m/s 742 mmHg 90%
    02:00 -11°C° 0 mm 7 m/s 742 mmHg 90%
    03:00 -9°C° 0 mm 7 m/s 741 mmHg 90%
    04:00 -9°C° 0 mm 7 m/s 741 mmHg 90%
    05:00 -9°C° 0.1 mm 7 m/s 741 mmHg 90%
    06:00 -9°C° 0.1 mm 7 m/s 741 mmHg 90%
    07:00 -9°C° 0.1 mm 7 m/s 741 mmHg 90%
    08:00 -9°C° 0.2 mm 7 m/s 741 mmHg 90%
    09:00 -8°C° 0.2 mm 7 m/s 741 mmHg 90%
    10:00 -8°C° 0.2 mm 7 m/s 741 mmHg 90%
    11:00 -8°C° 0.1 mm 7 m/s 741 mmHg 90%
    12:00 -7°C° 0.1 mm 7 m/s 741 mmHg 90%
    13:00 -7°C° 0.1 mm 7 m/s 741 mmHg 90%
    14:00 -7°C° 0.2 mm 7 m/s 741 mmHg 90%
    15:00 -7°C° 0.2 mm 7 m/s 741 mmHg 89%
    16:00 -7°C° 0.2 mm 7 m/s 741 mmHg 89%
    17:00 -7°C° 0.3 mm 7 m/s 741 mmHg 90%
    18:00 -8°C° 0.3 mm 7 m/s 741 mmHg 90%
    19:00 -8°C° 0.3 mm 7 m/s 740 mmHg 91%
    20:00 -8°C° 0.4 mm 7 m/s 740 mmHg 91%
    21:00 -8°C° 0.4 mm 6 m/s 740 mmHg 91%
    22:00 -8°C° 0.4 mm 6 m/s 740 mmHg 90%
    23:00 -6°C° 0.2 mm 6 m/s 740 mmHg 90%

    22 Février, Vendredi

    Heure Température Précipitation Vent Pression Humidité
    00:00 -6°C° 0.2 mm 5 m/s 739 mmHg 90%
    01:00 -6°C° 0.2 mm 5 m/s 739 mmHg 90%
    02:00 -5°C° 0.2 mm 5 m/s 739 mmHg 91%
    03:00 -4°C° 0.2 mm 4 m/s 738 mmHg 92%
    04:00 -3°C° 0.2 mm 4 m/s 738 mmHg 93%
    05:00 -4°C° 0.2 mm 5 m/s 738 mmHg 91%
    06:00 -4°C° 0.2 mm 5 m/s 737 mmHg 90%
    07:00 -2°C° 0.2 mm 5 m/s 737 mmHg 89%
    08:00 -2°C° 0.2 mm 5 m/s 737 mmHg 90%
    09:00 -2°C° 0.2 mm 5 m/s 737 mmHg 91%
    10:00 -2°C° 0.2 mm 5 m/s 737 mmHg 91%
    11:00 -2°C° 0.4 mm 5 m/s 736 mmHg 91%
    12:00 -2°C° 0.4 mm 5 m/s 736 mmHg 90%
    13:00 -2°C° 0.4 mm 5 m/s 736 mmHg 90%
    14:00 -2°C° 0.1 mm 5 m/s 736 mmHg 89%
    15:00 -2°C° 0.1 mm 4 m/s 736 mmHg 89%
    16:00 -2°C° 0.1 mm 3 m/s 736 mmHg 88%
    17:00 -4°C° 0.3 mm 3 m/s 736 mmHg 89%
    18:00 -5°C° 0.3 mm 3 m/s 737 mmHg 91%
    19:00 -7°C° 0.3 mm 4 m/s 737 mmHg 92%
    20:00 -8°C° 0.6 mm 4 m/s 737 mmHg 93%
    21:00 -8°C° 0.6 mm 4 m/s 738 mmHg 94%
    22:00 -9°C° 0.6 mm 4 m/s 738 mmHg 95%
    23:00 -10°C° 0.5 mm 5 m/s 739 mmHg 95%

    23 Février, Samedi

    Heure Température Précipitation Vent Pression Humidité
    00:00 -8°C° 0.5 mm 5 m/s 740 mmHg 94%
    01:00 -9°C° 0.5 mm 6 m/s 740 mmHg 94%
    02:00 -11°C° 0.1 mm 6 m/s 741 mmHg 93%
    03:00 -12°C° 0.1 mm 6 m/s 742 mmHg 93%
    04:00 -15°C° 0.1 mm 6 m/s 742 mmHg 92%
    05:00 -15°C° 0 mm 6 m/s 743 mmHg 92%
    06:00 -16°C° 0 mm 6 m/s 744 mmHg 93%
    07:00 -17°C° 0 mm 5 m/s 745 mmHg 93%
    08:00 -17°C° 0 mm 5 m/s 746 mmHg 93%
    09:00 -17°C° 0 mm 4 m/s 747 mmHg 93%
    10:00 -17°C° 0 mm 4 m/s 748 mmHg 93%
    11:00 -17°C° 0 mm 4 m/s 748 mmHg 92%
    12:00 -16°C° 0 mm 4 m/s 749 mmHg 91%
    13:00 -15°C° 0 mm 3 m/s 749 mmHg 90%
    14:00 -15°C° 0 mm 3 m/s 749 mmHg 90%
    15:00 -15°C° 0 mm 3 m/s 750 mmHg 90%
    16:00 -15°C° 0 mm 3 m/s 750 mmHg 90%
    17:00 -16°C° 0 mm 3 m/s 750 mmHg 91%
    18:00 -16°C° 0 mm 2 m/s 751 mmHg 93%
    19:00 -17°C° 0 mm 2 m/s 751 mmHg 94%
    20:00 -17°C° 0 mm 2 m/s 751 mmHg 94%
    21:00 -18°C° 0 mm 2 m/s 751 mmHg 94%
    22:00 -18°C° 0 mm 2 m/s 752 mmHg 94%
    23:00 -19°C° 0 mm 2 m/s 752 mmHg 95%
    Voir plus